Location: Battersea Observatory
(44.4318°N, 76.3841°W)
Time: 20:59:25
(UTC-04:00)

Tiros 1 despin weight - Pass Details

Date: 26 January 2022
Orbit: 592 x 639 km, 48.2° (Epoch: 25 May)

Event Time Altitude Azimuth Distance (km) Brightness Sun altitude
Rises 18:05:02 0° 262° (W) 2,879 ? -10.6°
Reaches altitude 10° 18:07:21 10° 266° (W) 1,983 ? -11.0°
Maximum altitude 18:11:52 62° 347° (NNW) 706 ? -11.8°
Enters shadow 18:15:17 18° 66° (ENE) 1,567 ? -12.3°
Drops below altitude 10° 18:16:29 10° 69° (ENE) 2,016 - -12.6°
Sets 18:18:51 0° 73° (ENE) 2,931 - -13.0°
